Boone, NC

5:46 PM EDT on June 25, 2017 (GMT -0400)
Boone

Weather History for KTNB - September, 2013

Change the Weather History Date:

Wednesday, September 11, 2013

  Actual Average (KGEV) Record (KGEV)
Temperature  
Mean Temperature 70 °F -  
Max Temperature 80 °F 75 °F 86 °F (1983)
Min Temperature 59 °F 52 °F 36 °F (1969)
Cooling Degree Days 4    
Growing Degree Days 20 (Base 50)    
Moisture  
Dew Point 64 °F    
Average Humidity 91    
Maximum Humidity 100    
Minimum Humidity 52    
Precipitation  
Precipitation 0.57 in - - ()
Sea Level Pressure  
Sea Level Pressure 30.31 in    
Wind  
Wind Speed 2 mph (WNW)    
Max Wind Speed 12 mph    
Max Gust Speed 17 mph    
Visibility 7 miles    
Events Rain , Thunderstorm    
Averages and records for this station are not official NWS values.
T = Trace of Precipitation, MM = Missing Value Source: NWS Daily Summary

Daily Weather History Graph

Daily Weather History Graph

Search for Another Location

Airport or City:

Trip Planner

Search our weather history database for the weather conditions in past years. The results will help you decide how hot, cold, wet, or windy it might be!

Date:

Astronomy

Sep. 11, 2013 Rise Set
Actual Time 7:06 AM EDT 7:39 PM EDT
Civil Twilight 6:40 AM EDT 8:05 PM EDT
Nautical Twilight 6:09 AM EDT 8:35 PM EDT
Astronomical Twilight 5:38 AM EDT 9:06 PM EDT
Moon 1:21 PM EDT (9/11) 11:45 PM EDT (9/11)
Length of Visible Light 13h 25m
Length of Day
12h 33m
Waxing Crescent, 38% of the Moon is Illuminated
Sep 11
Waxing Crescent
Sep 12
First Quarter
Sep 19
Full
Sep 26
Last Quarter
Oct 4
New

Hourly Weather History & Observations

Time (EDT) Temp. Heat Index Dew Point Humidity Pressure Visibility Wind Dir Wind Speed Gust Speed Precip Events Conditions
12:15 AM 63.1 °F - 63.1 °F 100% 30.36 in 2.5 mi Calm Calm - N/A   Clear
12:35 AM 63.3 °F - 63.3 °F 100% 30.36 in 4.0 mi Calm Calm - N/A   Clear
12:55 AM 63.5 °F - 63.5 °F 100% 30.35 in 7.0 mi Calm Calm - N/A   Clear
1:15 AM 61.5 °F - 61.5 °F 100% 30.34 in 2.5 mi Calm Calm - N/A   Clear
1:35 AM 63.1 °F - 62.8 °F 99% 30.34 in 10.0 mi Calm Calm - N/A   Clear
1:55 AM 61.7 °F - 61.7 °F 100% 30.34 in 5.0 mi Calm Calm - N/A   Clear
2:15 AM 60.8 °F - 60.8 °F 100% 30.34 in 5.0 mi Calm Calm - N/A   Clear
2:35 AM 61.2 °F - 61.2 °F 100% 30.34 in 7.0 mi Calm Calm - N/A   Clear
2:55 AM 62.4 °F - 61.9 °F 98% 30.33 in 10.0 mi Calm Calm - N/A   Clear
3:15 AM 60.8 °F - 60.8 °F 100% 30.33 in 4.0 mi Calm Calm - N/A   Clear
3:35 AM 61.0 °F - 61.0 °F 100% 30.33 in 5.0 mi Calm Calm - N/A   Scattered Clouds
3:55 AM 62.2 °F - 62.1 °F 99% 30.32 in 7.0 mi Calm Calm - N/A   Scattered Clouds
4:15 AM 62.8 °F - 62.1 °F 97% 30.32 in 10.0 mi Calm Calm - N/A   Clear
4:35 AM 60.6 °F - 60.6 °F 100% 30.32 in 4.0 mi Calm Calm - N/A   Clear
4:55 AM 60.8 °F - 60.8 °F 100% 30.32 in 4.0 mi Calm Calm - N/A   Clear
5:15 AM 59.9 °F - 59.9 °F 100% 30.32 in 4.0 mi Calm Calm - N/A   Clear
5:35 AM 59.5 °F - 59.5 °F 100% 30.32 in 4.0 mi Calm Calm - N/A   Clear
5:55 AM 59.9 °F - 59.9 °F 100% 30.33 in 7.0 mi Calm Calm - N/A   Clear
6:15 AM 59.7 °F - 59.7 °F 100% 30.33 in 4.0 mi Calm Calm - N/A   Clear
6:35 AM 60.1 °F - 60.1 °F 100% 30.34 in 7.0 mi Calm Calm - N/A   Clear
6:55 AM 60.1 °F - 60.1 °F 100% 30.34 in 7.0 mi Calm Calm - N/A   Clear
7:15 AM 59.9 °F - 59.9 °F 100% 30.35 in 4.0 mi Calm Calm - N/A   Clear
7:35 AM 61.7 °F - 61.7 °F 100% 30.35 in 7.0 mi Calm Calm - N/A   Clear
7:55 AM 61.2 °F - 61.2 °F 100% 30.35 in 5.0 mi West 3.5 mph - N/A   Clear
8:15 AM 62.6 °F - 62.4 °F 99% 30.35 in 7.0 mi Calm Calm - N/A   Clear
8:35 AM 66.2 °F - 64.2 °F 93% 30.35 in 10.0 mi West 5.8 mph - N/A   Clear
8:55 AM 68.2 °F - 64.4 °F 88% 30.36 in 10.0 mi West 8.1 mph - N/A   Clear
9:15 AM 70.2 °F - 64.6 °F 82% 30.36 in 10.0 mi WNW 10.4 mph - N/A   Clear
9:35 AM 70.9 °F - 64.8 °F 81% 30.36 in 10.0 mi West 9.2 mph - N/A   Clear
9:55 AM 70.7 °F - 64.9 °F 82% 30.36 in 10.0 mi West 9.2 mph - N/A   Clear
10:15 AM 71.8 °F - 65.5 °F 80% 30.36 in 10.0 mi West 10.4 mph - N/A   Clear
10:35 AM 72.7 °F - 65.1 °F 77% 30.36 in 10.0 mi West 10.4 mph - N/A   Clear
10:55 AM 73.8 °F - 64.8 °F 73% 30.35 in 10.0 mi West 8.1 mph - N/A   Clear
11:15 AM 74.8 °F - 63.5 °F 68% 30.35 in 10.0 mi West 6.9 mph - N/A   Clear
11:35 AM 75.2 °F - 63.1 °F 66% 30.35 in 10.0 mi WNW 11.5 mph 17.3 mph N/A   Clear
11:55 AM 75.6 °F - 61.9 °F 62% 30.34 in 10.0 mi NW 10.4 mph - N/A   Clear
12:15 PM 76.8 °F - 61.7 °F 59% 30.34 in 10.0 mi WNW 11.5 mph 16.1 mph N/A   Clear
12:35 PM 77.0 °F - 60.6 °F 57% 30.33 in 10.0 mi WNW 8.1 mph 16.1 mph N/A   Clear
12:55 PM 78.3 °F - 62.1 °F 57% 30.32 in 10.0 mi NW 8.1 mph - N/A   Clear
1:15 PM 78.3 °F - 62.2 °F 58% 30.31 in 10.0 mi NW 6.9 mph - N/A   Scattered Clouds
1:35 PM 78.6 °F - 62.1 °F 57% 30.30 in 10.0 mi WNW 8.1 mph - N/A   Clear
1:55 PM 80.2 °F 81.3 °F 61.9 °F 53% 30.29 in 10.0 mi WNW 8.1 mph - N/A   Clear
2:15 PM 79.9 °F - 60.8 °F 52% 30.28 in 10.0 mi WSW 5.8 mph - N/A   Clear
2:35 PM 78.8 °F - 64.2 °F 61% 30.28 in 10.0 mi South 4.6 mph - N/A   Scattered Clouds
2:55 PM 75.6 °F - 65.7 °F 71% 30.28 in 10.0 mi East 5.8 mph - N/A Rain Rain
3:15 PM 71.6 °F - 69.1 °F 92% 30.28 in 7.0 mi ESE 5.8 mph - N/A Rain , Thunderstorm Thunderstorms and Rain
3:35 PM 68.5 °F - 68.2 °F 99% 30.27 in 1.2 mi ESE 6.9 mph - 0.19 in Rain Heavy Rain
3:55 PM 68.0 °F - 68.0 °F 100% 30.27 in 0.5 mi South 5.8 mph - 0.57 in Rain Heavy Rain
4:15 PM 70.0 °F - 70.0 °F 100% 30.26 in 1.5 mi SE 4.6 mph - N/A Rain Light Rain
4:35 PM 70.3 °F - 70.3 °F 100% 30.26 in 4.0 mi Calm Calm - N/A   Clear
4:55 PM 70.7 °F - 70.2 °F 98% 30.26 in 7.0 mi North 5.8 mph - N/A Thunderstorm Thunderstorm
5:15 PM 69.4 °F - 65.7 °F 88% 30.25 in 10.0 mi WNW 8.1 mph - N/A Rain , Thunderstorm Thunderstorms and Rain
5:35 PM 67.5 °F - 66.2 °F 96% 30.27 in 10.0 mi Calm Calm - N/A Thunderstorm Unknown
5:55 PM 67.8 °F - 67.3 °F 98% 30.27 in 5.0 mi Calm Calm - N/A Rain , Thunderstorm Rain
6:15 PM 68.0 °F - 67.1 °F 97% 30.26 in 7.0 mi NNE 3.5 mph - N/A   Light Drizzle
6:35 PM 68.7 °F - 67.5 °F 96% 30.26 in 10.0 mi Calm Calm - N/A Thunderstorm Clear
6:55 PM 68.4 °F - 67.5 °F 97% 30.27 in 7.0 mi Calm Calm - N/A   Clear
7:15 PM 67.8 °F - 67.1 °F 98% 30.26 in 7.0 mi Calm Calm - N/A   Clear
7:35 PM 67.3 °F - 67.1 °F 99% 30.27 in 5.0 mi NNE 3.5 mph - N/A   Clear
7:55 PM 67.5 °F - 66.9 °F 98% 30.27 in 10.0 mi North 5.8 mph - N/A Thunderstorm Thunderstorm
8:15 PM 66.2 °F - 65.7 °F 98% 30.27 in 10.0 mi Calm Calm - N/A Thunderstorm Thunderstorm
8:35 PM 66.7 °F - 66.4 °F 99% 30.27 in 10.0 mi Calm Calm - N/A Rain , Thunderstorm Light Thunderstorms and Rain
8:55 PM 66.2 °F - 65.7 °F 98% 30.26 in 5.0 mi Calm Calm - N/A Rain , Thunderstorm Light Thunderstorms and Rain
9:15 PM 66.4 °F - 66.4 °F 100% 30.26 in 10.0 mi Calm Calm - N/A   Clear
9:35 PM 65.3 °F - 65.3 °F 100% 30.26 in 7.0 mi West 3.5 mph - N/A   Clear
9:55 PM 65.8 °F - 65.7 °F 99% 30.26 in 7.0 mi Calm Calm - N/A   Clear
10:15 PM 64.4 °F - 64.4 °F 100% 30.26 in 3.0 mi Calm Calm - N/A   Clear
10:35 PM 64.6 °F - 64.6 °F 100% 30.26 in 7.0 mi Calm Calm - N/A   Clear
10:55 PM 64.4 °F - 64.4 °F 100% 30.26 in 4.0 mi Calm Calm - N/A   Clear
11:15 PM 63.9 °F - 63.9 °F 100% 30.25 in 4.0 mi Calm Calm - N/A   Clear
11:35 PM 63.0 °F - 63.0 °F 100% 30.25 in 1.5 mi Calm Calm - N/A   Mist
11:55 PM 64.2 °F - 64.2 °F 100% 30.24 in 7.0 mi West 5.8 mph - N/A   Clear